LEMUR-2-ANUBHAVTHAKUR

Last updated on Wed Feb 14 2018 16:20:13 GMT+0000 (Coordinated Universal Time)

1 41873U 16062E 18044.94770441 .00000947 00000-0 54951-4 0 9999 2 41873 51.6480 19.7921 0004042 17.3478 342.7636 15.22180763 67737
UTC large
Height (km)
Speed (km/s)
/
Latitude / Longitude
Inclination (degrees)
Orbital Period (minutes)
Azimuth
Elevation
Range (km)
Doppler Factor

Next 0 passes for location: London (51.5072 / 0.1276)

Sorry there are no passes over London.